DW5914 Weather Reports


time (UTC)temp
C
wind
direction
speed
KPH
gust
KPH
rain 1hr
cm
rain 24hr
cm
rain mn
cm
humidity
%
barometer
mb
20260503211503 17 5 4.8 11.3 0.00 0.00 0.00 66 1014.0
20260503210002 17 18 6.4 12.9 0.00 0.00 0.00 66 1014.1
20260503204559 17 35 6.4 16.1 0.00 0.00 0.00 63 1014.4
20260503203058 17 329 4.8 17.7 0.00 0.00 0.00 64 1014.6
20260503201553 16 325 9.7 22.5 0.00 0.00 0.00 68 1014.9
20260503200056 16 42 9.7 20.9 0.00 0.00 0.00 70 1015.0
20260503194558 16 355 9.7 32.2 0.00 0.00 0.00 70 1015.2
20260503193049 16 287 8.0 16.1 0.00 0.00 0.00 71 1015.2
20260503191552 17 344 4.8 14.5 0.00 0.00 0.00 71 1015.3
20260503190048 16 330 6.4 11.3 0.00 0.00 0.00 72 1015.4
20260503184542 16 360 3.2 12.9 0.00 0.00 0.00 74 1015.6
20260503183041 16 329 4.8 14.5 0.00 0.00 0.00 74 1015.9
20260503181539 15 349 6.4 16.1 0.00 0.00 0.00 76 1016.0
20260503180036 15 10 3.2 16.1 0.00 0.00 0.00 78 1016.0
20260503174535 15 5 6.4 17.7 0.00 0.00 0.00 79 1016.2
20260503173038 15 360 4.8 19.3 0.00 0.00 0.00 79 1016.3
20260503171535 14 341 6.4 16.1 0.00 0.00 0.00 81 1016.4
20260503110110 14 18 4.8 12.9 0.00 0.00 0.00 79 1016.7
20260503081537 15 355 6.4 14.5 0.00 0.00 0.00 69 1016.5
20260503071532 16 53 3.2 9.7 0.00 0.00 0.00 63 1016.4
20260503054531 16 9 8.0 12.9 0.00 0.00 0.00 64 1016.0
20260503053024 16 42 6.4 11.3 0.00 0.00 0.00 65 1016.1
20260503051523 16 44 6.4 11.3 0.00 0.00 0.00 64 1016.1
20260503050034 16 15 6.4 14.5 0.00 0.00 0.00 63 1016.1
20260503044522 16 29 8.0 14.5 0.00 0.00 0.00 64 1016.0
20260503043021 16 30 8.0 11.3 0.00 0.00 0.00 64 1015.9
20260503041531 16 52 8.0 12.9 0.00 0.00 0.00 64 1015.8
20260503040020 16 12 8.0 12.9 0.00 0.00 0.00 63 1015.6
20260503034520 16 12 6.4 16.1 0.00 0.00 0.00 65 1015.4
20260503033020 16 341 8.0 16.1 0.00 0.00 0.00 65 1015.3
20260503031519 16 5 6.4 22.5 0.00 0.00 0.00 64 1015.2
20260503030023 15 40 8.0 12.9 0.00 0.00 0.00 67 1015.1
20260503024519 16 41 6.4 16.1 0.00 0.00 0.00 67 1015.1
20260503023016 16 92 8.0 12.9 0.00 0.00 0.00 67 1015.2
20260503021521 16 9 6.4 14.5 0.00 0.00 0.00 68 1015.2
20260503020016 16 57 6.4 14.5 0.00 0.00 0.00 69 1015.2
20260503014514 15 16 6.4 14.5 0.00 0.00 0.00 70 1015.4
20260503013013 15 29 6.4 14.5 0.00 0.00 0.00 72 1015.4
20260503011512 15 315 8.0 16.1 0.00 0.00 0.00 72 1015.6
20260503010012 16 355 6.4 19.3 0.00 0.00 0.00 69 1015.6
20260503004511 16 5 6.4 20.9 0.00 0.00 0.00 68 1015.7
20260503003009 16 35 6.4 14.5 0.00 0.00 0.00 68 1015.8
20260503001511 16 348 8.0 16.1 0.00 0.00 0.00 67 1015.8
20260503000005 16 5 8.0 12.9 0.00 0.00 0.00 70 1015.9
20260502234503 15 44 8.0 16.1 0.00 0.00 0.00 74 1016.1
20260502233002 15 21 9.7 19.3 0.00 0.00 0.00 74 1016.3
20260502231502 15 348 8.0 16.1 0.00 0.00 0.00 73 1016.2
20260502230100 16 5 4.8 17.7 0.00 0.00 0.00 71 1016.5
20260502224604 16 27 8.0 19.3 0.00 0.00 0.00 72 1016.6
20260502223057 16 355 8.0 17.7 0.00 0.00 0.00 71 1016.8
20260502221552 16 78 8.0 17.7 0.00 0.00 0.00 71 1017.2
20260502220050 15 13 9.7 22.5 0.00 0.00 0.00 75 1017.3
20260502214547 15 346 12.9 25.7 0.00 0.00 0.00 75 1017.5
20260502213045 15 319 6.4 19.3 0.00 0.00 0.00 77 1017.7